IUS DEB, 26076

Orbit data source: Space-Track

IUS DEB, 26076 is space debris originally from a launch on Fri, 23 Jul 1999 UTC launched from the Air Force Eastern Test Range (AFETR). Debris objects in space refer to the collection of defunct objects orbiting the Earth. Examples of debris include non-operational satellites, rocket bodies, and fragments generated from explosions, collisions, or faulty payload assembly.

Loading next visibility...
Identifier
26076, 1999-040E
Orbit
Active
Country
Flag of USUS
Related business
Manufacturer
Boeing/Kent
Mission
Spacecraft
Bus & Motor
Unknown
Mass
Unknown
Launch date (UTC)
1999-07-23 (26 years ago)
Launch vehicle
Unknown
Launch site
Air Force Eastern Test Range (AFETR)
Object type
Payload
Rocket body
Debris
Shape & HBR
Unknown shape, 0.1 m
Radar Cross Section
Small (<0.1 m²)

Expand to show TLE details & history
Last TLE update: 5 months ago

TLE from 5 months ago
0 IUS DEB
1 26076U 99040E   25161.89949750  .00002030  00000-0  49899-3 0  9996
2 26076  28.4308  31.0959 4341019 166.1054 211.3335  6.69019476502755
Epoch: 2025-06-10T21:35Z
TLE epoch observation values (Epoch: 2025-06-10T21:35:16.583Z)
Latitude
0.00002°
Longitude
167.7871°
Altitude
10,305.353 km
Speed
3.78 km/s
True Right ascension
02h 04m 23s
True Declination
0° 00' 00"
Sunlit
Object was in daylight at epoch
Visualization orbit readout
Latitude
Unknown
Longitude
Unknown
Altitude
Unknown
Speed
Unknown
Apparent Right ascension
Unknown
Apparent Declination
Unknown
Sunlit
N/A
Visualization observer readout
Local Sidereal Time
13:19:00
Azimuth
Unknown
Elevation
Unknown
Doppler factor
Unknown
Orbital elements
Apogee altitude
10,688.382 km
Perigee altitude
356.329 km
Semi-major axis
11,900.492 km
Eccentricity
0.4341
Inclination
28.4308°
RAAN
31.0959°
Arg. of periapsis
166.1054°
True anomaly
193.93064°
Mean anomaly
211.3335°
Eccentric anomaly
202.01156°
Mean motion
1.67184 °/min
Orbital period
215.33 mins
BSTAR
0.00049899
Loading maneuver chart data...
Computing Atmospheric mass density...
Loading historical data...
Loading historical data...
Loading historical data...
Loading historical data...
Loading historical data...
Loading historical data...
Loading historical data...

Documentation

Showing up to 5 results
|